[Iaude] MPEC F134: 2022 CW22 [a=0.88,e=0.23,i=2.0,H=25.0]

mpec at marsden.cfa.harvard.edu mpec at marsden.cfa.harvard.edu
Wed Mar 30 13:46:24 EDT 2022


M.P.E.C. 2022-F134                               Issued 2022 March 30, 17:44 UT

     The Minor Planet Electronic Circulars contain information on unusual
         minor planets and routine data on comets.  They are published
    on behalf of Division F of the International Astronomical Union by the
          Minor Planet Center, Smithsonian Astrophysical Observatory,
                          Cambridge, MA 02138, U.S.A.

             Prepared using the Tamkin Foundation Computer Network

                              MPC at CFA.HARVARD.EDU
            URL https://www.minorplanetcenter.net/    ISSN 1523-6714

                                   2022 CW22                                    


Observations:
     K22C22W* C2022 02 10.17563206 06 49.41 -20 07 52.9          20.01GVEF134G96
     K22C22W  C2022 02 10.18174406 06 42.85 -20 07 49.2          19.81GVEF134G96
     K22C22W  C2022 02 10.18786506 06 36.35 -20 07 46.4          19.45GVEF134G96
     K22C22W  C2022 02 10.19398106 06 29.71 -20 07 42.1          20.41GVEF134G96
     K22C22W KC2022 02 10.25697006 05 21.61 -20 07 02.8          20.02GVEF134I52
     K22C22W KC2022 02 10.25872406 05 19.73 -20 07 00.8          20.06GVEF134I52
     K22C22W KC2022 02 10.26047806 05 17.79 -20 07 00.4          20.82GVEF134I52
     K22C22W KC2022 02 12.19204605 32 37.50 -19 37 22.4          21.25GVEF134I52
     K22C22W KC2022 02 12.19518805 32 34.15 -19 37 22.3                VEF134I52

Observer details:
G96 Mt. Lemmon Survey.  Observer A. R. Gibbs.  Measurers E. J. Christensen, G.
    A. Farneth, J. B. Fazekas, D. C. Fuls, A. R. Gibbs, A. D. Grauer, H.
    Groeller, R. A. Kowalski, S. M. Larson, G. J. Leonard, D. Rankin, R. L.
    Seaman, A. Serrano, F. C. Shelly, K. W. Wierzchos.  1.5-m reflector + 10K
    CCD.
I52 Steward Observatory, Mt. Lemmon Station.  Observer K. W. Wierzchos.
    Measurers E. J. Christensen, G. A. Farneth, J. B. Fazekas, D. C. Fuls, A.
    R. Gibbs, A. D. Grauer, H. Groeller, R. A. Kowalski, S. M. Larson, G. J.
    Leonard, D. Rankin, R. L. Seaman, A. Serrano, F. C. Shelly, K. W.
    Wierzchos.

Orbital elements:
2022 CW22                                                Earth MOID = 0.0193 AU
Epoch 2022 Jan. 21.0 TT = JDT 2459600.5                 Veres                   
M 214.62598              (2000.0)            P               Q                  
n   1.19808124     Peri.   80.19858     +0.17243724     +0.98494793             
a   0.8779677      Node   199.74311     -0.91704678     +0.15609463             
e   0.2272522      Incl.    2.02857     -0.35957004     +0.07424319             
P   0.82           H   25.07          G   0.15           U   9                  
Residuals in seconds of arc
220210 G96  1.5-  0.5-    220210 G96  1.1+  0.6+    220210 I52  0.6-  0.2-
220210 G96  0.6-  0.1+    220210 I52  0.1+  0.1-    220212 I52  0.5-  2.1+
220210 G96  1.3+  0.3-    220210 I52  0.1+  0.7+    220212 I52  0.5+  2.2-

Ephemeris:
2022 CW22                a,e,i = 0.88, 0.23, 2                   q = 0.6784
Date    TT    R. A. (2000) Decl.     Delta      r    Elong.  Phase     V
2022 02 28    02 13 33.8 -08 55 41   0.06425 0.9524    52.1   124.8    24.2
...
2022 03 15    00 51 50.3 -02 59 42   0.1055  0.8947    18.4   159.5    30.7
...
2022 03 23    00 26 23.5 -01 25 51   0.1357  0.8615     5.2   173.9
...
2022 03 29    00 13 18.1 -00 34 16   0.1632  0.8359     5.5   173.5
2022 03 30    00 11 35.2 -00 26 30   0.1683  0.8316     6.7   172.0
2022 03 31    00 10 00.0 -00 18 52   0.1734  0.8274     7.9   170.5
...
2022 04 06    00 03 05.4 +00 25 13   0.2075  0.8019    15.0   161.2    32.6
...
2022 04 14    00 00 27.8 +01 26 14   0.2616  0.7690    23.1   149.2    29.9
...
2022 04 29    00 13 34.6 +03 54 52   0.3904  0.7161    33.8   128.6    27.9

M. P. C. Staff               (C) Copyright 2022 MPC           M.P.E.C. 2022-F134




More information about the Iaude mailing list